Location: Wavehorne
(51.0500°N, 0.8333°E)
Time: 20:02:32
(UTC+00:00)

BREEZE-M DEB (TANK) - Pass Details

Date: 20 June 2021
Orbit: 334 x 16573 km, 49.3° (Epoch: 01 August)

Event Time Altitude Azimuth Distance (km) Brightness Sun altitude
Rises 01:59:03 0° 273° (W) 2,998 5.8 -10.9°
Reaches altitude 10° 02:01:48 10° 269° (W) 1,558 4.3 -10.7°
Maximum altitude 02:04:32 56° 189° (S) 413 1.4 -10.5°
Drops below altitude 10° 02:06:51 10° 108° (ESE) 1,327 4.4 -10.3°
Sets 02:08:59 0° 104° (ESE) 2,447 5.9 -10.1°
